Wind_Speed
22 22 22 22 22 22 22 21 19 19 18 18 17 17 17 17 18 18 18 18 18 18 18 18 19 19 20 20 20 20 20 20 20 20 18 16 15 14 14 15 13 11 10 9 9 9 9 10 10 11 11 11 11 10 9 13 12 11 12 13 13 13 12 7 5 3 2 2 2 4 3 1 1 4 5 7 6 7 9 8 17 21 16 16 16 14 15 16
21 22 22 21 21 21 21 20 19 18 17 17 16 16 16 16 16 16 16 16 16 16 17 17 18 18 18 18 19 19 19 20 21 20 18 17 16 15 14 14 14 12 9 9 9 9 9 9 10 10 11 10 8 8 9 13 14 13 13 14 16 13 9 7 8 3 1 5 2 4 3 1 2 6 6 7 6 8 9 10 17 20 18 17 14 13 16 18
21 21 21 21 20 21 21 20 19 18 17 16 15 15 15 15 15 14 15 15 15 15 15 16 16 16 16 17 17 17 17 18 19 18 17 17 16 15 15 14 15 13 10 9 10 10 10 10 10 10 9 9 8 9 9 12 14 14 14 15 17 11 6 7 8 6 5 6 3 2 2 1 3 6 6 6 7 8 9 12 18 19 18 14 10 14 17 18
20 20 21 21 20 20 20 20 19 18 17 16 15 14 14 14 14 14 14 13 14 14 14 15 14 15 15 15 15 15 15 15 16 16 14 16 16 15 15 14 15 15 12 10 10 11 11 9 9 9 9 9 10 10 11 12 12 13 15 18 16 9 9 8 8 7 8 6 4 4 3 5 5 7 5 5 8 8 11 13 21 23 19 12 11 16 18 18
20 20 21 21 20 20 20 20 19 18 17 15 15 14 14 14 13 13 13 13 13 13 14 13 13 14 14 14 14 13 11 9 13 14 12 12 14 15 14 14 15 15 13 11 11 12 12 10 8 10 11 11 11 12 13 13 12 12 14 19 18 13 10 8 7 7 11 13 10 9 9 10 9 11 8 8 11 10 15 13 18 21 16 11 11 16 19 18
19 19 20 21 20 20 20 20 20 18 17 16 15 14 14 14 13 13 12 12 12 12 13 12 13 13 13 13 12 12 10 6 8 12 11 11 12 13 13 15 15 15 14 11 10 12 12 12 12 12 12 12 12 13 14 13 14 14 14 16 17 16 12 9 7 7 10 13 13 12 12 11 10 11 8 11 10 9 17 15 13 13 9 9 11 17 20 19
19 19 20 20 20 20 20 20 20 19 17 16 15 14 14 13 13 13 12 12 12 12 12 12 12 12 12 12 11 12 13 11 10 11 10 10 10 12 13 14 15 15 14 11 10 11 11 13 14 13 11 11 12 13 14 13 14 16 15 14 14 14 13 13 11 10 10 10 11 11 12 12 11 10 8 10 8 8 17 19 18 14 8 9 12 19 21 20
19 19 19 20 20 20 20 20 19 19 17 16 15 14 13 13 13 12 12 12 12 12 11 11 11 11 11 11 12 12 10 13 17 13 10 10 8 9 11 12 14 15 14 12 10 10 11 12 14 13 12 11 10 11 13 13 14 17 18 15 14 13 12 14 14 13 13 11 11 11 13 13 12 12 12 11 8 8 17 20 20 17 13 11 12 20 21 20
19 19 19 20 20 19 20 19 19 18 17 16 14 14 13 13 13 12 13 12 12 12 11 11 11 11 11 11 12 10 7 15 19 13 12 12 9 8 9 11 13 13 14 13 12 12 13 12 13 14 13 11 10 10 12 13 14 16 17 16 16 15 13 13 14 14 14 12 12 12 13 14 14 14 15 14 11 12 19 19 18 17 15 11 14 21 20 20
19 19 19 19 19 19 19 19 18 18 17 15 14 14 13 13 13 13 13 12 12 12 12 11 11 11 11 12 12 9 9 17 17 14 14 14 12 10 9 10 11 13 14 14 13 12 12 10 10 12 12 12 10 9 12 15 13 10 12 15 16 17 16 15 14 14 14 13 13 13 14 14 14 14 16 14 10 14 19 19 20 19 14 11 17 23 21 20
18 18 18 19 19 19 18 18 18 17 16 15 14 14 14 13 13 13 12 13 12 12 12 11 11 12 11 13 13 11 12 15 16 15 14 14 13 11 11 11 11 14 14 12 12 12 12 9 9 10 10 12 10 9 12 16 14 11 10 13 14 16 17 17 17 15 14 14 13 14 15 15 15 16 17 16 12 14 15 16 20 21 15 13 20 24 21 21
18 17 18 18 19 18 18 18 18 17 16 15 14 13 13 13 13 12 12 12 12 12 12 11 11 12 12 13 12 13 15 15 15 15 13 14 13 11 12 12 12 14 13 9 11 14 14 11 13 14 9 9 10 9 12 14 15 15 13 14 14 15 18 19 19 17 15 14 13 12 14 16 17 18 17 15 14 14 14 14 16 19 16 14 23 25 22 21
18 17 17 17 18 18 18 17 17 17 16 15 14 13 13 13 12 12 12 12 12 12 11 11 11 12 13 12 11 15 17 16 16 13 11 14 13 12 12 12 12 14 15 10 11 14 18 16 17 19 11 8 9 8 10 10 12 15 14 15 15 16 19 20 19 17 16 14 11 10 13 15 16 19 18 15 15 14 15 16 14 16 14 13 23 25 21 19
18 17 17 17 17 17 17 17 17 16 15 15 14 14 13 13 13 12 12 12 12 11 11 11 11 11 13 11 12 16 16 16 15 11 11 13 12 12 12 12 13 15 17 17 14 15 21 20 18 20 16 13 11 10 10 11 11 12 13 15 15 16 19 19 18 17 15 14 11 10 12 16 17 19 21 17 18 17 13 17 17 15 13 14 22 22 22 22
18 17 16 16 16 17 17 17 17 16 15 15 14 13 13 13 12 12 12 12 11 11 10 10 10 11 12 11 13 14 13 16 14 11 12 12 12 12 12 13 14 15 17 19 18 16 18 18 17 19 17 14 13 10 10 12 12 12 13 15 15 16 18 12 15 16 12 12 12 12 14 18 18 17 21 19 18 18 14 19 22 17 15 16 22 23 25 25
17 17 16 16 16 16 17 17 16 15 15 15 14 13 13 13 12 12 11 11 11 10 10 10 10 11 10 10 14 13 12 15 13 12 12 11 11 12 12 13 14 15 16 16 17 15 15 17 17 17 14 12 13 13 11 12 14 14 14 15 14 15 13 7 17 17 12 10 10 13 14 17 17 14 18 21 20 18 16 21 22 17 16 15 21 25 25 22
17 17 16 16 16 16 16 16 16 15 14 14 13 13 12 13 12 12 11 11 10 9 9 9 9 11 11 12 14 10 10 13 13 13 12 11 11 11 11 12 13 13 13 14 16 14 14 16 16 16 15 14 15 14 15 15 15 16 15 14 14 15 13 8 17 18 13 11 10 13 12 16 20 14 8 16 19 16 16 22 23 18 17 17 18 22 20 17
17 16 16 15 15 16 16 16 15 14 14 13 13 12 12 12 13 13 12 12 12 10 10 10 11 9 8 12 11 6 10 14 13 13 12 11 12 13 12 12 11 12 12 12 13 13 13 14 15 14 15 17 17 17 18 17 15 15 14 13 13 14 13 8 12 15 11 9 10 14 13 15 20 15 6 13 15 13 15 23 23 18 17 18 19 22 19 16
16 16 15 14 14 15 15 15 14 13 14 13 12 12 11 12 13 13 13 14 14 11 7 8 13 9 3 6 5 4 11 13 10 13 12 12 13 16 15 13 11 12 11 11 12 12 12 13 14 16 17 18 20 20 20 18 16 14 13 13 13 14 14 11 8 9 7 7 8 13 14 15 16 16 11 10 11 12 14 20 22 19 19 20 22 25 20 18
15 15 15 14 14 15 14 14 13 13 13 12 12 11 10 11 10 10 15 17 16 14 9 7 12 12 4 3 5 10 14 11 7 10 12 12 14 15 16 13 12 13 13 13 12 11 13 15 16 19 19 19 19 20 20 19 19 17 15 12 13 15 16 14 11 11 9 8 9 11 13 15 16 17 15 13 13 13 15 20 24 22 20 21 24 25 22 21
15 14 14 13 14 14 13 12 12 13 12 11 11 10 12 13 10 10 16 15 14 16 15 15 14 12 9 5 8 14 14 10 8 9 11 13 14 16 17 15 15 16 16 15 12 11 14 17 18 19 18 18 18 18 19 21 20 18 15 12 12 14 15 13 12 12 9 7 8 12 14 16 17 19 19 18 18 16 15 19 24 24 21 22 24 25 25 24
14 14 13 13 13 13 12 11 12 12 11 11 11 11 14 14 13 14 17 15 14 16 16 20 19 16 14 10 11 13 10 10 11 12 14 14 15 16 17 17 18 17 16 16 15 14 17 19 18 18 18 17 18 17 19 21 20 16 13 14 14 12 11 13 14 10 7 6 7 11 14 17 17 19 20 20 22 20 16 17 22 24 23 24 25 24 25 24
13 13 12 12 12 12 11 11 11 11 11 11 11 13 14 12 12 14 16 16 15 14 14 19 22 20 19 17 16 16 13 12 12 16 18 17 16 16 16 18 18 17 16 17 19 17 17 19 19 17 17 17 18 18 16 17 17 14 13 15 15 14 13 13 13 10 9 9 9 10 16 19 18 18 20 20 22 24 21 17 18 21 23 24 24 23 22 22
12 12 11 12 12 11 11 11 10 10 10 10 11 13 13 11 11 12 14 15 13 13 13 15 19 20 21 20 20 21 18 14 13 18 22 19 17 17 17 18 17 17 17 17 20 19 17 19 19 17 16 18 19 18 16 13 13 14 17 17 16 16 15 15 13 11 13 12 10 12 17 21 21 19 19 18 19 24 25 21 19 21 22 23 25 24 21 22
11 11 11 12 11 11 11 10 10 10 10 11 12 12 11 11 10 11 10 10 11 11 11 13 16 18 19 18 19 21 19 19 16 18 23 20 17 18 18 17 17 18 18 18 19 20 19 19 16 16 16 19 19 17 17 16 15 16 18 20 19 18 16 17 15 15 16 14 10 13 14 15 19 21 21 20 20 22 24 24 22 22 21 22 26 28 24 22
11 11 11 12 12 11 11 10 9 9 9 11 12 11 10 10 9 9 8 7 10 9 12 15 17 16 18 19 20 18 16 22 22 19 21 21 18 19 17 17 18 18 17 18 18 19 20 18 13 13 13 15 17 16 16 17 18 18 17 17 19 20 18 18 17 18 17 13 11 14 13 13 15 19 20 21 22 22 23 24 23 21 20 21 25 30 27 23
11 11 12 12 12 11 10 9 9 10 10 10 11 11 10 9 7 5 5 6 8 11 13 14 15 14 17 18 19 19 13 14 22 24 22 22 20 20 18 17 17 17 16 17 19 18 18 19 17 16 13 13 16 17 16 17 19 18 16 14 16 18 20 19 18 18 17 16 16 18 18 17 16 16 16 17 18 19 20 22 23 23 21 20 23 28 30 27
11 11 12 12 12 11 11 10 11 12 11 9 10 11 9 8 7 6 4 5 5 12 13 14 15 13 13 14 18 21 11 4 16 25 25 22 21 21 21 20 17 17 16 17 20 17 16 20 19 16 15 16 17 17 16 17 19 18 16 17 16 16 17 18 18 19 18 18 19 20 19 15 14 16 17 17 17 17 18 19 19 20 19 20 21 25 29 27
12 12 12 12 12 11 11 10 11 12 10 9 9 10 10 8 8 7 4 4 7 12 11 13 15 13 13 13 17 20 13 7 11 17 22 23 22 21 22 20 18 17 17 18 20 17 16 17 16 15 16 17 17 16 16 17 19 17 16 18 16 11 11 13 15 18 18 17 18 20 18 13 11 16 16 15 15 14 15 17 16 12 12 15 17 20 28 30
12 12 12 12 12 11 10 10 12 12 11 11 11 10 10 10 10 7 4 3 8 11 11 13 13 13 15 15 16 19 16 12 9 10 21 23 21 21 20 17 18 18 18 20 20 19 15 13 14 16 18 17 16 15 16 16 16 15 14 14 12 10 13 14 16 17 15 13 17 20 19 15 11 13 15 15 15 14 11 13 14 12 11 14 16 12 14 20
12 11 11 12 12 11 11 11 13 14 13 13 12 10 11 11 10 7 4 5 8 10 11 13 13 13 17 16 16 19 18 14 10 13 22 22 20 22 20 17 18 18 18 20 21 21 19 14 14 16 16 15 15 15 15 14 13 14 13 10 8 11 15 16 17 16 10 9 16 19 19 18 13 12 13 10 10 14 12 11 15 19 17 16 19 16 11 14
12 11 11 12 12 11 11 10 10 13 13 13 13 13 12 10 9 11 6 3 7 10 10 11 13 15 17 16 16 18 18 15 15 17 21 22 21 24 24 20 19 18 18 19 21 22 21 20 18 16 17 17 16 16 17 16 15 15 15 13 10 9 10 11 11 10 10 11 16 18 15 16 13 7 4 3 7 12 17 16 18 22 20 16 16 18 15 18
11 11 11 12 11 11 11 10 10 12 13 14 15 15 12 6 8 13 11 6 5 7 8 12 15 14 15 15 16 18 17 16 18 19 19 21 20 23 26 24 20 19 17 17 20 20 19 21 21 17 17 19 19 19 18 19 19 17 17 16 13 8 6 6 6 6 9 11 15 18 14 13 11 4 5 4 7 12 15 17 20 21 21 19 16 17 15 15
11 10 11 10 9 10 11 11 12 14 14 16 17 16 10 8 8 11 12 9 7 6 5 10 11 10 13 14 15 16 16 16 18 19 18 20 20 21 24 25 23 21 18 16 18 19 16 17 20 20 17 18 22 23 19 16 17 18 18 17 17 14 8 6 6 6 8 7 10 14 10 10 9 3 3 5 7 11 12 12 16 19 20 20 21 22 22 20
10 9 9 9 9 10 11 12 13 15 16 18 18 14 10 11 10 9 9 7 5 6 7 9 9 10 13 15 15 15 17 16 18 19 19 20 21 20 22 25 25 23 20 17 15 17 18 16 17 19 18 17 20 23 21 17 17 18 18 20 20 18 14 10 9 8 8 6 7 11 8 4 2 2 3 7 8 10 11 10 14 17 17 19 20 21 23 26
8 7 7 8 9 10 11 13 14 15 18 20 17 12 13 13 8 4 5 4 3 6 7 8 11 12 13 15 15 15 17 15 15 18 19 19 21 20 20 22 24 25 23 18 14 14 16 16 15 17 18 19 19 19 20 20 17 14 17 21 20 17 16 13 11 12 10 6 7 12 9 2 4 3 1 5 7 9 12 12 13 13 14 15 14 15 18 21
6 7 8 8 9 10 11 13 15 16 19 20 14 13 13 12 8 2 2 2 2 5 6 7 11 13 12 14 14 14 16 14 13 17 18 18 19 20 20 19 21 25 25 21 16 14 13 13 14 16 17 19 19 18 19 21 18 14 15 17 17 16 17 15 10 8 9 6 7 13 12 7 7 4 1 3 5 8 10 9 8 7 7 6 5 6 10 12
6 7 8 8 9 10 12 14 16 17 20 18 13 14 13 9 7 4 4 4 2 4 8 9 8 11 12 13 14 16 17 14 13 15 17 17 16 17 20 19 19 23 24 23 19 14 12 12 13 16 17 17 18 18 18 20 21 19 14 12 13 14 14 15 12 6 7 6 5 12 13 3 4 3 3 3 2 2 4 4 5 3 1 1 3 4 5 7
8 8 8 9 9 10 12 14 16 18 20 17 11 12 12 8 5 3 6 7 5 3 8 9 7 9 11 9 10 14 15 14 14 14 15 15 14 14 17 17 18 20 21 23 21 15 10 11 12 14 16 15 17 20 19 19 21 22 18 14 13 12 10 11 12 9 9 6 4 9 8 3 6 4 1 3 5 4 3 3 5 3 1 1 3 4 2 4
10 9 8 9 10 11 13 14 17 20 20 17 11 10 9 8 6 5 6 8 8 6 7 7 5 5 8 7 9 10 11 12 13 13 14 12 11 12 12 12 13 17 18 21 23 18 14 12 11 11 14 17 19 21 20 19 20 22 22 20 16 13 12 10 9 9 9 5 4 5 3 2 3 2 2 1 3 4 4 4 6 6 4 2 3 4 4 2
12 9 7 9 10 11 13 15 18 20 18 14 11 10 10 9 4 2 5 8 10 9 6 5 5 3 4 7 8 7 9 10 11 12 13 11 10 11 11 9 9 11 16 20 22 21 18 15 12 12 14 18 19 20 20 19 19 20 22 22 19 16 15 10 6 7 10 10 7 3 0 2 2 1 2 3 4 5 5 6 9 7 5 5 5 5 4 3
13 9 7 9 10 11 14 14 15 16 14 12 10 8 10 13 7 2 4 6 7 8 6 6 6 5 5 6 5 4 7 9 9 10 12 11 11 11 9 9 7 6 11 17 20 21 18 14 13 14 15 17 16 14 17 18 18 20 20 21 21 20 19 13 6 5 10 11 8 2 2 3 3 3 5 4 4 5 6 6 9 8 7 7 9 9 8 6
12 11 11 11 11 13 15 13 12 13 13 13 13 9 6 9 9 5 4 4 6 7 6 7 7 6 7 7 6 6 6 7 7 9 10 8 8 10 10 11 10 6 9 14 14 15 16 15 14 14 15 17 15 10 13 18 19 20 19 19 21 20 20 18 9 6 9 9 6 2 1 1 5 6 4 1 2 4 6 7 8 8 8 9 10 10 9 7
10 10 14 14 13 15 15 13 11 12 13 11 11 11 8 6 7 6 4 4 6 7 6 6 6 7 7 7 6 6 5 5 6 8 8 7 7 9 10 12 13 9 9 13 11 9 12 14 15 13 11 14 13 10 11 14 15 17 17 17 18 17 15 15 8 4 6 9 6 2 2 3 6 4 2 2 4 6 8 9 11 9 6 7 8 8 7 5
9 8 14 14 14 15 12 11 10 7 10 11 8 9 9 7 6 8 7 5 5 5 6 5 5 6 7 6 6 7 8 7 7 7 6 6 8 9 9 11 15 14 12 14 14 11 12 13 12 12 8 6 6 5 6 10 9 10 12 12 11 10 8 7 5 2 1 5 4 1 4 6 7 3 4 6 8 9 10 13 15 12 5 5 7 6 5 2
9 9 13 13 14 14 10 9 8 3 5 8 6 7 10 8 6 8 9 7 5 6 6 6 5 5 6 6 7 7 9 10 9 9 7 6 7 8 7 8 13 17 14 12 13 15 17 14 10 10 6 4 3 4 4 9 8 8 10 7 3 4 6 2 3 1 2 4 2 4 8 9 8 7 10 11 8 7 8 10 11 8 5 5 6 4 2 1
9 9 11 12 12 12 9 7 6 4 5 6 5 6 8 8 6 5 6 7 7 6 7 7 7 6 5 6 7 7 8 9 10 10 9 7 7 8 9 9 10 14 15 12 11 13 16 12 9 9 6 5 4 3 4 8 6 7 9 7 2 5 8 4 3 5 2 4 1 8 10 11 11 12 14 14 10 6 7 6 5 5 6 6 5 3 2 2
9 7 8 10 8 7 7 7 8 8 7 7 6 6 5 6 7 6 5 6 6 6 6 6 6 7 6 6 6 8 8 8 8 8 7 6 6 7 11 10 3 4 12 14 12 12 13 10 9 12 11 10 7 4 2 6 5 4 7 8 4 4 5 4 4 5 4 2 5 11 12 12 14 13 13 13 11 9 9 7 4 6 8 6 4 3 3 3
9 8 5 6 6 5 6 8 8 6 5 6 5 5 4 5 7 7 4 5 6 6 6 5 5 7 7 6 6 7 8 8 8 6 5 6 5 4 7 8 2 3 6 12 14 13 11 8 9 12 11 12 10 6 3 3 6 3 2 3 1 6 7 6 5 4 4 4 8 13 13 13 14 11 11 11 11 11 11 8 5 7 8 7 6 5 3 3
9 9 7 5 4 3 7 8 6 4 5 6 4 3 4 4 5 6 5 5 6 7 6 5 5 6 6 6 6 6 7 9 9 5 4 6 5 3 3 4 2 1 4 5 9 10 7 5 6 6 5 8 10 9 7 2 9 9 7 8 10 10 8 3 4 6 6 5 6 10 11 11 10 9 10 11 10 11 11 9 7 7 8 8 7 5 4 3
8 10 9 6 2 1 4 5 4 4 4 4 4 4 4 3 3 4 5 5 5 6 7 5 5 6 6 6 5 4 3 4 5 4 4 5 4 2 2 3 2 4 6 4 3 4 4 4 4 4 4 6 9 12 11 5 9 9 7 8 9 10 8 2 5 9 10 8 6 5 6 7 9 10 10 8 9 10 8 6 5 5 5 6 4 4 5 5
9 9 8 7 4 2 4 3 3 4 5 5 6 5 4 4 2 3 5 5 4 5 5 4 5 7 6 6 6 7 6 4 4 5 2 3 3 3 3 3 4 5 4 3 2 2 3 4 5 4 4 5 7 10 10 7 6 3 2 3 5 9 9 4 7 11 12 12 10 8 9 10 10 11 10 8 8 8 5 3 3 2 3 3 3 5 6 5
Wind_Direction
251 250 249 249 249 249 247 244 242 240 240 240 241 243 245 245 245 246 246 247 248 248 248 247 248 249 249 250 252 253 253 253 252 250 246 245 242 238 234 225 223 223 224 222 219 216 210 208 201 199 196 194 202 187 200 219 213 223 234 239 240 239 235 263 315 191 150 71 91 34 13 64 271 302 316 301 283 230 246 243 239 249 245 237 236 225 217 218
250 249 248 247 246 247 246 242 239 237 236 236 236 238 240 241 241 242 242 244 245 246 245 245 245 245 246 247 248 249 251 252 251 250 247 245 242 238 233 224 221 220 221 216 211 210 204 203 195 195 192 188 210 202 206 220 216 216 224 236 236 237 246 288 309 231 306 333 340 7 1 153 287 310 302 301 286 243 252 238 240 249 245 243 232 215 211 210
249 249 248 247 245 246 246 243 239 237 235 233 232 233 235 236 237 238 239 239 240 241 242 241 241 242 243 243 245 247 248 250 252 251 247 244 242 237 232 223 218 217 218 214 207 203 198 193 187 188 181 180 213 215 210 219 222 219 221 235 233 244 291 297 291 265 276 323 338 327 347 323 309 313 294 297 294 265 264 243 242 247 247 249 218 206 209 205
249 250 249 247 245 245 246 244 241 238 234 231 230 231 231 232 233 234 235 236 235 236 238 237 238 239 239 240 242 243 245 252 254 249 243 241 239 235 230 220 216 216 217 216 207 197 186 178 181 180 173 187 212 212 211 218 221 221 225 234 232 254 309 293 279 276 262 268 291 264 286 316 303 300 286 291 290 274 291 263 235 237 242 242 215 209 207 203
250 251 250 248 246 246 246 245 243 239 236 231 229 229 230 230 229 231 232 233 232 232 234 234 235 235 236 237 236 237 237 251 253 242 237 237 234 232 226 217 214 212 213 214 211 201 177 166 189 190 184 203 217 216 219 222 225 228 233 240 245 265 293 288 274 275 268 262 270 271 273 287 288 286 276 277 278 278 301 278 232 238 245 241 216 208 208 204
250 251 251 250 247 247 246 246 245 241 238 233 230 228 228 229 228 229 229 230 230 230 231 230 233 231 233 233 231 232 213 198 240 235 232 235 229 226 221 214 211 210 211 209 210 207 179 170 198 203 195 209 220 223 226 225 229 235 241 246 252 264 267 270 282 279 280 273 269 269 265 273 279 279 269 265 270 280 288 281 262 261 260 259 220 202 207 202
251 251 251 251 249 248 247 247 246 244 239 234 232 228 227 227 227 228 228 229 228 228 229 228 232 230 232 231 229 228 210 206 233 231 229 233 225 221 216 211 209 208 208 205 205 203 184 177 194 203 204 216 224 228 231 230 230 235 244 249 252 262 257 257 271 270 277 282 270 263 256 260 266 266 264 263 266 268 268 271 277 276 283 284 221 196 200 198
253 251 251 251 249 249 248 248 248 246 241 236 232 229 227 226 226 227 227 228 228 228 229 228 230 229 231 230 227 227 220 232 238 228 227 225 211 213 211 207 207 205 203 204 202 190 183 183 193 202 207 219 230 232 232 233 235 237 243 248 250 258 259 256 262 264 271 276 268 262 256 256 257 257 258 260 258 250 254 257 261 262 272 274 214 198 196 191
255 253 252 252 251 249 248 248 248 247 243 237 233 231 228 226 226 227 227 228 228 228 228 228 229 229 228 227 225 218 221 240 236 226 227 223 211 212 207 202 202 199 198 199 197 185 181 187 195 200 210 226 242 242 232 232 237 238 240 246 250 255 260 260 262 263 266 266 263 262 258 255 252 253 254 254 249 240 247 252 259 262 264 255 207 198 194 187
256 254 254 253 252 250 248 248 249 248 245 240 236 233 230 228 225 226 227 227 227 227 227 226 227 228 225 224 217 203 226 243 237 227 227 228 223 218 208 198 195 193 192 191 193 186 171 176 196 206 229 242 246 244 228 228 238 242 243 246 251 255 256 257 259 259 259 258 258 257 258 256 250 247 247 250 242 232 245 258 263 263 261 248 205 195 192 188
256 255 254 255 253 251 249 249 249 249 247 243 239 235 232 228 226 225 226 226 226 226 227 225 226 228 224 224 212 199 228 242 238 230 226 232 227 219 212 197 191 189 186 185 189 184 169 179 208 211 233 237 233 249 238 233 242 251 255 254 255 256 255 254 253 253 254 254 256 256 259 255 245 243 242 245 234 221 239 264 265 261 257 236 207 197 196 193
256 254 253 254 253 253 251 249 250 250 248 245 241 238 233 228 226 225 225 225 225 224 225 225 226 228 226 227 213 208 229 236 239 237 227 231 225 217 214 198 194 184 172 187 200 187 180 198 211 202 220 229 222 250 249 237 241 248 255 258 261 261 258 253 247 247 247 251 255 252 255 253 242 240 240 236 228 218 228 250 262 266 266 237 211 203 201 199
255 253 251 252 253 254 253 251 250 249 248 247 243 239 235 233 229 227 227 226 225 223 223 226 228 230 231 229 215 217 232 238 243 244 229 230 223 218 213 200 200 181 162 181 214 198 188 200 204 197 210 225 221 244 244 234 239 244 249 256 261 263 259 250 241 237 237 244 244 237 248 254 242 235 235 230 226 223 230 239 246 258 265 236 215 208 205 202
255 253 250 250 252 253 253 251 249 248 247 246 244 242 240 238 233 229 228 226 227 224 224 228 230 234 233 229 226 227 232 238 244 244 234 232 223 218 212 204 202 189 175 179 201 207 198 200 200 195 197 203 221 254 249 238 242 242 243 247 250 256 260 249 230 218 226 235 225 227 250 260 257 241 234 237 231 219 226 238 231 241 254 226 214 212 210 206
256 253 250 248 250 252 251 250 249 247 246 247 246 243 242 239 235 231 227 226 227 225 228 231 231 239 237 230 238 236 230 237 243 242 238 232 223 216 210 209 205 200 197 191 198 211 207 203 200 197 197 202 222 249 253 239 237 234 237 240 233 245 264 248 201 198 221 229 215 225 251 264 265 248 233 233 225 209 219 239 233 246 262 224 208 215 216 209
254 253 250 246 247 249 250 249 249 247 246 247 246 243 242 238 235 230 229 229 228 227 231 233 234 240 236 230 236 233 229 236 237 235 234 224 213 211 211 211 209 208 208 206 210 215 210 205 202 202 207 221 226 234 244 238 230 223 227 242 234 233 255 222 183 196 217 211 204 223 246 262 261 257 239 219 208 206 223 242 239 247 262 236 213 219 225 217
251 251 248 245 245 246 248 248 247 247 245 245 243 242 240 237 235 233 234 234 232 233 231 234 239 238 237 237 238 235 232 232 228 226 225 217 196 192 217 215 208 215 213 213 219 216 212 208 206 206 210 222 224 225 234 234 227 217 216 239 249 241 247 221 189 196 206 204 214 224 239 261 258 271 251 196 198 209 226 242 243 245 258 259 236 230 239 232
248 249 247 244 243 244 245 245 245 245 242 242 241 239 238 238 237 235 238 239 237 236 237 240 234 233 257 249 241 252 243 231 225 222 217 213 186 175 216 225 203 212 213 215 223 215 213 211 208 214 215 217 220 218 223 227 223 214 209 222 251 257 251 236 186 176 183 200 228 235 239 258 262 269 236 183 202 218 234 250 253 254 258 260 242 236 248 241
245 246 246 243 241 242 242 241 242 240 238 236 235 236 236 239 241 242 244 242 240 234 236 253 230 218 293 262 215 205 231 228 220 219 213 210 192 175 204 222 198 202 207 213 222 209 207 211 208 216 219 216 218 218 221 229 227 223 224 224 242 254 243 241 212 179 187 206 234 245 243 253 264 266 241 208 219 222 236 254 259 257 250 252 245 238 242 235
241 243 244 241 239 238 237 236 235 235 233 230 230 230 231 234 239 253 249 241 242 235 219 238 227 208 225 253 184 188 210 216 204 211 210 205 197 182 194 207 194 201 205 206 215 205 201 211 212 216 219 217 219 221 226 234 238 253 269 257 244 243 238 233 217 207 210 214 243 255 251 254 259 262 254 240 240 231 229 246 255 253 244 248 246 235 232 232
237 239 240 238 237 234 232 231 229 230 229 227 226 222 226 226 220 242 248 241 243 238 222 225 224 204 202 203 203 212 216 213 196 198 210 200 190 188 193 196 194 205 208 203 208 203 205 216 219 220 220 222 224 224 232 239 246 268 282 267 247 242 245 241 230 227 204 188 246 261 260 260 255 258 260 254 252 245 229 236 252 255 249 249 246 235 230 232
234 234 234 233 233 231 229 227 226 227 226 226 225 221 229 233 227 238 251 251 248 244 232 224 219 210 210 198 198 213 209 206 199 192 208 203 187 190 197 198 199 207 210 205 207 201 208 222 224 224 224 226 230 226 232 242 247 261 263 249 249 249 248 245 243 242 210 202 251 263 266 264 258 257 255 253 254 252 240 236 249 258 257 256 254 249 241 235
232 228 228 228 229 228 227 227 227 226 225 226 226 227 234 239 240 243 251 257 255 251 244 228 219 214 214 205 205 210 196 199 203 193 206 210 193 187 194 202 204 208 212 206 208 205 209 225 223 221 226 226 230 227 229 242 241 241 241 238 243 248 252 251 240 232 237 259 267 265 273 269 264 261 252 249 248 250 253 245 242 253 260 262 262 259 251 244
229 225 223 224 225 224 224 226 224 223 225 225 227 234 240 242 243 246 251 260 260 246 240 234 225 218 217 212 218 226 214 209 209 201 213 214 193 188 193 205 209 210 215 209 212 216 219 232 222 208 220 224 225 225 224 236 238 232 233 236 241 243 250 257 252 245 244 256 264 260 270 269 263 261 254 251 246 245 252 251 243 245 250 254 258 256 250 250
226 222 221 223 222 222 223 223 221 223 223 225 229 233 241 244 242 247 251 264 268 240 215 220 220 216 217 211 217 229 223 218 206 201 225 224 193 193 199 206 212 214 217 214 217 223 230 245 233 206 217 221 219 222 220 227 239 240 233 234 242 248 255 261 270 275 253 241 244 242 250 261 257 254 251 249 248 246 247 248 246 245 243 241 248 253 248 248
223 219 221 223 221 222 223 221 221 222 220 228 232 229 237 240 237 245 242 253 260 222 193 205 212 209 203 200 211 218 220 227 214 196 225 233 198 194 205 206 212 217 218 217 221 225 232 246 236 215 220 213 212 223 222 223 233 241 236 231 237 246 257 261 270 281 267 254 260 248 248 266 263 255 251 245 243 245 246 244 242 244 245 240 244 251 248 243
222 221 224 223 221 222 219 218 217 213 215 225 227 224 231 230 226 226 215 245 243 200 188 197 208 212 200 204 212 200 199 233 221 201 211 228 210 197 209 210 210 219 218 220 226 224 229 238 226 218 224 215 215 225 224 221 228 236 237 232 232 237 245 249 256 267 267 268 271 262 261 272 271 264 264 261 251 244 242 240 237 240 246 245 243 248 248 245
223 224 227 226 226 224 216 215 214 215 219 219 219 219 217 215 208 178 183 253 199 172 185 192 201 207 192 205 208 192 190 205 208 203 200 218 219 199 209 216 210 219 217 219 230 222 222 235 228 214 219 224 224 228 226 221 227 236 234 234 241 244 246 249 252 256 259 262 262 259 256 262 265 262 266 271 263 250 244 245 242 238 242 248 247 249 252 252
225 225 230 230 230 229 221 215 217 224 225 214 212 209 205 199 179 168 214 258 166 163 185 193 199 195 176 195 198 190 204 193 196 206 193 207 220 200 207 221 216 223 220 220 232 226 215 227 229 217 220 230 229 229 229 223 227 236 238 245 256 257 249 253 256 255 255 251 253 255 253 255 260 259 262 265 267 261 245 246 253 239 220 231 240 247 253 253
228 228 231 232 231 231 224 215 215 218 214 209 207 200 197 183 169 185 220 200 178 174 186 197 201 191 178 189 193 192 206 206 200 199 186 199 213 200 206 223 223 230 228 220 228 234 228 223 226 226 226 231 233 229 229 226 227 230 237 250 257 244 239 250 255 255 258 251 248 251 251 256 261 260 261 259 269 278 247 228 244 245 224 221 224 232 253 254
233 231 232 232 230 227 221 217 215 213 207 203 200 191 187 177 179 209 195 178 202 179 176 198 195 187 186 189 196 195 201 209 201 184 184 193 203 201 207 217 218 228 233 222 219 230 238 228 219 224 225 226 231 231 226 223 221 222 228 237 240 230 229 238 242 240 247 253 252 251 246 246 250 264 269 249 243 262 250 228 237 245 246 238 227 230 259 267
238 234 232 232 228 222 220 218 214 212 206 197 192 183 175 179 206 225 214 206 209 177 181 195 180 184 193 194 200 193 193 206 199 186 188 193 198 202 206 208 206 212 224 223 216 220 230 228 219 219 225 225 225 228 226 220 215 216 221 220 228 237 224 226 232 227 234 246 251 255 252 248 245 254 274 164 176 225 237 235 237 241 247 247 234 234 252 263
241 236 233 232 225 218 213 207 201 199 196 191 185 175 171 195 223 219 220 223 179 166 199 193 174 183 194 198 208 197 193 205 196 191 197 198 202 206 208 210 207 206 214 221 219 215 219 228 225 217 222 224 221 223 223 217 211 212 217 214 217 235 231 223 230 236 245 248 253 257 255 252 245 174 112 142 182 213 229 236 239 243 246 248 246 240 243 253
239 234 231 226 217 210 202 198 193 185 185 184 175 168 183 228 227 212 220 219 172 143 184 184 175 191 199 210 218 199 196 207 197 195 201 200 205 209 209 212 212 212 218 226 226 219 216 226 226 218 217 218 218 222 224 219 212 213 220 222 222 229 237 237 228 234 252 273 287 278 262 246 244 187 150 232 239 237 241 250 251 250 246 246 252 251 246 247
233 230 224 212 204 196 186 188 186 180 181 175 167 173 204 227 226 218 219 215 178 175 198 198 198 212 213 221 229 210 201 205 197 196 203 204 208 210 209 211 212 212 217 225 224 220 226 233 228 219 218 217 216 221 225 226 222 216 219 225 229 231 234 243 251 259 281 305 295 277 272 271 309 38 227 243 259 257 253 260 263 261 256 250 254 259 257 254
227 220 207 195 191 185 179 181 179 178 176 167 171 200 217 217 221 219 206 200 170 179 195 202 205 218 220 217 227 216 201 200 199 202 209 210 212 213 209 210 212 211 213 218 215 211 224 237 229 216 218 222 221 220 221 226 229 220 216 222 227 231 232 239 252 255 266 284 259 252 254 183 116 71 352 262 272 268 259 263 268 269 267 263 263 268 266 261
214 202 191 183 183 179 176 178 176 177 174 168 184 215 219 226 231 252 315 263 214 190 209 227 212 214 219 211 213 206 196 196 201 210 215 211 212 214 212 211 210 210 214 219 220 216 222 239 234 218 221 224 222 222 221 225 230 225 223 227 224 225 230 236 245 241 238 248 252 248 238 186 156 149 143 283 289 281 268 259 260 267 272 283 305 295 281 274
192 189 183 177 184 178 172 178 178 174 172 176 203 217 217 240 233 228 287 269 208 198 229 253 237 216 219 216 208 199 197 199 199 213 221 213 212 210 209 215 212 208 213 217 225 228 225 239 238 223 225 222 214 221 223 221 225 227 231 234 223 220 225 226 228 237 240 236 244 248 244 226 71 90 150 188 171 253 255 221 215 246 296 16 28 23 339 308
176 181 180 176 185 180 172 178 178 174 176 186 217 220 216 247 253 244 263 228 193 213 236 255 269 233 223 233 225 205 202 202 197 214 226 216 215 208 202 214 215 209 211 212 218 221 214 236 246 224 220 219 209 216 223 220 218 223 231 236 232 233 236 228 224 232 245 248 256 253 253 14 39 46 107 171 159 181 217 178 175 197 186 67 65 74 52 342
169 178 184 181 183 177 171 175 178 179 181 189 217 226 219 245 257 252 256 224 210 240 250 256 277 241 216 241 247 214 205 206 200 215 228 220 222 221 212 221 220 212 212 213 217 218 206 219 243 230 217 220 217 215 222 222 212 213 222 228 229 230 234 241 237 235 245 260 273 261 263 24 25 9 344 208 163 172 192 187 184 190 201 187 119 107 137 145
168 182 187 179 176 170 170 175 179 182 186 196 223 238 226 222 226 256 263 240 217 218 240 249 256 255 237 253 252 214 211 224 215 219 229 226 224 223 221 229 229 218 214 215 218 218 210 207 224 233 223 223 226 219 221 227 220 214 216 221 228 229 228 233 232 236 244 244 251 268 127 156 145 64 286 234 164 146 163 196 203 199 212 208 181 156 160 180
173 192 185 173 173 164 164 171 176 182 194 210 221 232 229 220 223 285 276 250 221 211 228 246 252 274 274 268 275 246 235 241 232 226 233 236 227 215 203 201 213 226 216 216 221 221 217 214 223 233 228 228 234 223 221 231 229 223 220 219 226 231 234 236 226 230 244 242 243 272 86 151 190 236 250 223 173 157 166 202 214 210 216 204 188 192 202 210
181 193 178 166 165 161 162 171 184 194 204 220 218 215 236 230 228 251 255 230 216 211 224 238 245 260 257 259 275 266 258 261 250 242 241 237 223 216 212 203 205 231 230 220 222 218 210 214 229 235 228 229 240 246 239 236 229 227 227 224 226 230 236 239 225 208 236 246 246 254 53 183 230 256 273 256 180 176 179 208 232 227 215 196 187 196 206 203
190 184 168 163 166 170 172 174 188 204 210 226 230 221 230 230 214 224 235 221 214 213 225 234 235 242 241 250 262 248 247 260 255 251 246 247 251 239 233 225 214 225 246 231 220 210 203 211 227 235 228 223 231 251 251 237 228 227 228 230 234 237 242 243 228 181 227 246 245 236 83 151 197 233 294 236 228 220 210 223 241 247 227 196 187 190 193 191
198 177 161 163 173 181 181 172 174 199 216 226 234 220 218 224 220 220 214 204 209 219 226 227 229 237 236 244 258 248 242 248 253 255 246 253 267 245 227 232 224 226 250 242 223 215 211 212 223 231 237 226 221 256 251 233 245 252 243 247 252 257 269 247 219 151 246 258 254 170 135 154 175 207 232 227 228 228 228 235 243 253 251 201 189 185 183 177
192 176 165 168 179 190 191 176 171 189 220 216 220 216 215 222 232 231 219 208 216 227 228 235 240 245 246 246 256 258 248 246 247 252 254 271 280 251 214 216 220 220 230 230 221 221 217 220 236 244 265 299 278 317 288 235 262 295 273 274 306 318 341 29 154 117 337 302 341 130 162 174 183 218 237 243 244 222 223 236 239 242 240 213 201 194 202 334
174 162 166 170 178 193 199 190 189 212 213 198 201 213 218 221 223 234 234 220 223 233 236 242 239 238 248 250 256 262 257 255 251 246 249 266 283 263 225 209 208 211 216 216 217 223 218 220 246 252 274 302 253 286 295 238 262 313 285 272 325 313 316 348 95 104 118 283 243 148 160 172 188 219 235 246 257 245 236 243 223 216 229 228 226 222 236 307
165 150 163 164 165 188 205 203 205 215 212 204 217 221 211 213 213 227 244 216 212 234 237 234 233 232 239 246 257 261 259 266 263 248 246 258 278 265 236 231 223 190 218 223 215 214 214 218 244 244 255 276 251 213 240 231 237 310 280 261 269 307 331 21 65 102 130 229 189 163 160 169 189 219 238 250 261 254 250 252 218 226 243 237 230 233 240 277
151 138 149 144 138 166 187 184 186 199 202 202 220 223 205 207 211 220 235 211 209 230 227 222 230 228 230 242 257 258 254 255 250 239 252 268 285 291 248 237 206 129 219 226 211 209 212 224 248 239 243 265 249 215 241 219 181 173 215 215 101 56 57 65 71 96 114 114 148 165 175 185 195 216 235 249 258 252 256 268 246 238 252 247 235 232 229 247
143 128 133 127 119 176 189 178 167 172 194 193 191 190 187 197 208 208 212 211 214 215 211 226 237 221 226 246 253 250 244 242 236 232 268 270 269 304 296 254 225 342 311 250 198 198 202 217 250 237 236 256 232 228 271 229 166 173 152 126 110 89 76 86 126 130 126 123 157 183 200 209 213 225 233 241 251 252 261 276 272 257 251 244 241 234 213 213
156 138 145 157 165 198 181 177 175 170 178 178 174 183 181 179 207 211 199 203 220 213 206 226 237 227 236 246 241 237 229 226 233 251 296 289 256 241 288 301 302 314 316 299 206 206 213 229 257 244 250 261 237 244 265 225 173 181 154 126 120 104 83 84 173 161 152 152 165 186 214 234 238 242 244 237 239 253 267 274 283 291 263 240 233 215 207 216
167 152 152 162 172 157 149 171 201 193 193 182 172 179 175 156 182 224 199 190 215 218 204 222 239 241 254 249 226 222 213 197 211 215 236 304 270 238 249 275 275 273 274 276 278 253 217 232 254 239 236 268 266 264 258 225 202 194 106 83 102 104 87 91 167 173 167 163 167 181 206 228 236 240 244 236 238 254 263 257 273 300 274 246 216 215 226 235
Height
3080 3081 3081 3082 3082 3083 3083 3083 3083 3083 3083 3084 3085 3086 3087 3088 3088 3089 3089 3090 3091 3092 3092 3092 3092 3093 3093 3094 3094 3095 3096 3097 3097 3098 3099 3101 3102 3103 3104 3105 3106 3108 3108 3109 3110 3111 3112 3113 3114 3115 3116 3117 3118 3119 3121 3123 3124 3125 3125 3125 3124 3123 3123 3122 3120 3120 3120 3119 3119 3120 3120 3122 3124 3124 3124 3123 3123 3124 3125 3126 3122 3121 3124 3123 3126 3129 3130 3130
3078 3079 3079 3080 3080 3081 3082 3082 3081 3081 3082 3082 3083 3084 3085 3086 3086 3087 3088 3088 3089 3090 3091 3091 3091 3091 3092 3092 3092 3093 3094 3095 3095 3096 3098 3099 3100 3101 3102 3104 3105 3106 3108 3108 3109 3110 3111 3112 3113 3115 3115 3117 3118 3119 3121 3122 3122 3123 3124 3123 3122 3121 3122 3121 3119 3120 3120 3118 3119 3121 3121 3122 3123 3123 3124 3123 3124 3124 3125 3125 3120 3120 3122 3123 3127 3128 3130 3130
3076 3077 3078 3078 3079 3079 3080 3080 3080 3080 3080 3080 3081 3082 3083 3084 3084 3085 3086 3087 3087 3088 3089 3089 3089 3089 3090 3090 3091 3091 3092 3093 3093 3095 3096 3097 3098 3100 3101 3102 3104 3105 3106 3107 3108 3109 3110 3111 3113 3114 3115 3117 3119 3120 3121 3122 3121 3121 3122 3121 3120 3120 3121 3120 3119 3121 3119 3118 3120 3121 3121 3121 3123 3124 3123 3123 3124 3124 3124 3124 3120 3117 3120 3125 3127 3127 3129 3129
3074 3075 3076 3077 3077 3077 3078 3079 3079 3079 3079 3079 3079 3080 3081 3082 3083 3083 3084 3085 3086 3087 3087 3087 3088 3088 3088 3089 3089 3090 3091 3091 3091 3093 3095 3095 3097 3098 3099 3101 3102 3104 3105 3106 3107 3108 3109 3111 3112 3113 3115 3117 3119 3120 3121 3121 3120 3121 3120 3119 3118 3119 3120 3120 3119 3119 3118 3118 3119 3120 3121 3121 3123 3123 3123 3124 3124 3124 3123 3122 3118 3113 3118 3124 3126 3127 3128 3128
3072 3073 3074 3075 3075 3076 3077 3077 3077 3077 3077 3077 3078 3078 3079 3080 3081 3082 3083 3083 3084 3085 3086 3086 3086 3087 3087 3088 3088 3088 3090 3090 3089 3091 3093 3094 3095 3096 3098 3099 3101 3103 3104 3105 3106 3107 3108 3110 3112 3113 3114 3117 3119 3120 3120 3120 3120 3120 3120 3118 3117 3119 3120 3119 3118 3118 3116 3117 3118 3119 3120 3121 3122 3121 3123 3124 3124 3124 3121 3118 3116 3113 3118 3123 3125 3127 3128 3128
3070 3071 3072 3073 3074 3074 3075 3076 3076 3076 3076 3076 3076 3077 3077 3078 3079 3080 3081 3082 3083 3083 3084 3085 3085 3085 3086 3086 3087 3088 3089 3088 3087 3090 3092 3092 3094 3095 3096 3098 3099 3101 3103 3104 3105 3106 3107 3109 3112 3113 3114 3115 3117 3119 3119 3119 3119 3119 3119 3118 3117 3118 3119 3118 3118 3117 3116 3116 3117 3119 3120 3121 3121 3121 3123 3123 3124 3124 3118 3116 3116 3116 3119 3122 3124 3126 3127 3127
3068 3069 3070 3071 3072 3072 3073 3074 3075 3075 3075 3075 3075 3075 3076 3077 3078 3079 3080 3081 3081 3082 3083 3083 3083 3084 3084 3085 3086 3086 3087 3087 3086 3089 3090 3091 3093 3093 3095 3097 3098 3100 3101 3103 3104 3105 3106 3108 3110 3112 3114 3115 3116 3118 3118 3119 3119 3118 3117 3117 3117 3117 3118 3118 3117 3117 3116 3116 3117 3118 3118 3119 3120 3121 3123 3123 3124 3124 3117 3116 3116 3116 3119 3120 3122 3124 3125 3126
3066 3067 3068 3069 3070 3070 3071 3072 3073 3074 3074 3074 3074 3074 3074 3075 3076 3078 3078 3079 3080 3080 3081 3082 3082 3082 3083 3084 3084 3085 3086 3085 3085 3088 3089 3090 3092 3092 3094 3095 3097 3099 3100 3102 3103 3105 3106 3107 3110 3111 3113 3114 3116 3117 3117 3118 3117 3117 3116 3116 3117 3116 3117 3116 3116 3116 3115 3116 3116 3117 3117 3118 3120 3120 3121 3121 3124 3123 3115 3114 3115 3116 3120 3120 3121 3122 3122 3124
3064 3065 3066 3067 3068 3069 3069 3070 3071 3072 3073 3073 3072 3072 3073 3074 3075 3076 3077 3078 3078 3079 3079 3080 3081 3081 3082 3082 3083 3084 3085 3083 3083 3087 3088 3089 3091 3092 3093 3094 3096 3097 3099 3101 3102 3104 3105 3107 3109 3111 3112 3114 3115 3116 3116 3116 3116 3115 3115 3116 3116 3115 3116 3115 3115 3115 3115 3116 3116 3116 3116 3117 3119 3119 3120 3120 3123 3121 3113 3113 3114 3116 3120 3121 3121 3121 3121 3122
3062 3063 3064 3065 3066 3067 3067 3068 3070 3071 3071 3071 3071 3071 3072 3072 3073 3074 3075 3076 3076 3077 3078 3078 3079 3080 3080 3081 3082 3083 3083 3081 3083 3085 3086 3088 3090 3091 3092 3093 3095 3096 3098 3100 3101 3103 3105 3107 3109 3110 3111 3112 3113 3114 3114 3114 3114 3114 3114 3114 3114 3114 3115 3114 3115 3114 3114 3115 3115 3116 3115 3116 3118 3118 3118 3118 3120 3118 3112 3113 3114 3116 3120 3120 3120 3121 3121 3122
3060 3061 3062 3063 3064 3065 3065 3067 3068 3069 3070 3070 3070 3070 3070 3071 3072 3073 3074 3074 3075 3076 3076 3077 3078 3078 3079 3079 3081 3081 3081 3081 3082 3083 3085 3087 3088 3090 3091 3092 3094 3095 3097 3099 3101 3102 3104 3107 3109 3110 3111 3111 3111 3112 3112 3112 3112 3113 3113 3113 3113 3113 3112 3112 3113 3113 3113 3114 3114 3114 3114 3115 3116 3116 3116 3116 3118 3118 3114 3114 3113 3115 3119 3120 3120 3120 3121 3122
3058 3059 3060 3061 3062 3063 3064 3065 3066 3067 3068 3068 3068 3068 3069 3070 3071 3071 3072 3073 3074 3074 3074 3075 3076 3077 3077 3078 3080 3080 3079 3081 3081 3082 3084 3086 3087 3089 3090 3092 3093 3094 3096 3099 3101 3101 3104 3106 3107 3108 3109 3109 3111 3112 3111 3111 3111 3112 3112 3111 3111 3111 3110 3110 3110 3111 3112 3112 3113 3114 3113 3113 3113 3114 3115 3113 3116 3117 3115 3115 3113 3113 3118 3120 3120 3120 3120 3121
3057 3057 3058 3059 3060 3061 3062 3063 3064 3065 3066 3067 3067 3067 3067 3068 3069 3070 3071 3072 3072 3073 3073 3074 3074 3075 3076 3077 3079 3078 3078 3080 3081 3082 3083 3085 3086 3088 3089 3091 3092 3093 3095 3099 3101 3100 3101 3103 3104 3105 3107 3108 3109 3110 3109 3109 3111 3110 3111 3110 3110 3109 3107 3107 3108 3109 3111 3111 3112 3113 3111 3111 3111 3112 3113 3111 3113 3116 3115 3116 3114 3112 3116 3119 3119 3119 3119 3120
3055 3056 3056 3057 3058 3059 3060 3061 3062 3064 3065 3065 3065 3065 3066 3067 3068 3069 3070 3071 3071 3072 3072 3072 3073 3074 3075 3076 3077 3077 3078 3079 3080 3081 3082 3084 3085 3087 3088 3089 3091 3092 3093 3096 3098 3098 3099 3100 3101 3103 3104 3105 3107 3108 3108 3109 3109 3109 3110 3109 3109 3107 3104 3103 3106 3108 3109 3110 3111 3111 3110 3109 3108 3109 3110 3110 3111 3114 3114 3114 3112 3112 3115 3118 3118 3118 3118 3117
3054 3054 3055 3055 3056 3057 3058 3059 3061 3062 3063 3063 3064 3064 3065 3066 3067 3068 3069 3069 3070 3071 3071 3071 3072 3073 3074 3075 3075 3076 3077 3078 3079 3080 3081 3083 3084 3086 3087 3088 3090 3091 3092 3094 3095 3096 3097 3099 3100 3102 3103 3104 3105 3107 3107 3108 3108 3108 3108 3106 3106 3105 3102 3101 3103 3106 3108 3108 3110 3110 3110 3108 3106 3106 3107 3108 3110 3112 3113 3111 3109 3111 3115 3117 3117 3117 3115 3112
3052 3052 3053 3053 3054 3055 3056 3057 3059 3060 3061 3061 3062 3063 3064 3064 3065 3066 3067 3068 3069 3069 3070 3070 3071 3072 3073 3073 3073 3075 3076 3077 3078 3079 3080 3082 3083 3085 3086 3088 3089 3090 3091 3093 3094 3095 3097 3098 3099 3101 3102 3104 3105 3106 3106 3106 3105 3106 3106 3104 3104 3103 3101 3100 3101 3104 3105 3106 3108 3109 3109 3106 3103 3103 3104 3106 3108 3111 3112 3109 3108 3111 3114 3117 3118 3117 3116 3111
3050 3051 3051 3052 3053 3053 3054 3056 3057 3058 3059 3060 3061 3061 3062 3063 3064 3065 3066 3067 3068 3068 3069 3069 3070 3071 3071 3072 3072 3074 3075 3075 3077 3078 3080 3081 3082 3085 3086 3086 3088 3089 3091 3092 3093 3094 3096 3097 3098 3099 3101 3102 3104 3105 3105 3103 3102 3102 3103 3103 3102 3100 3100 3100 3099 3101 3103 3105 3107 3107 3108 3105 3101 3101 3103 3105 3107 3110 3111 3107 3107 3111 3112 3114 3115 3115 3115 3113
3048 3049 3050 3050 3051 3052 3053 3054 3055 3057 3057 3058 3059 3060 3061 3062 3063 3064 3065 3065 3066 3067 3068 3068 3069 3070 3071 3070 3071 3073 3073 3074 3075 3077 3079 3080 3081 3084 3086 3086 3087 3089 3090 3091 3092 3093 3095 3096 3098 3099 3100 3100 3101 3102 3101 3100 3099 3099 3100 3101 3101 3099 3098 3099 3098 3100 3102 3105 3106 3106 3107 3105 3102 3102 3105 3106 3107 3110 3110 3105 3106 3110 3111 3112 3113 3113 3113 3113
3046 3047 3048 3049 3049 3050 3051 3053 3054 3055 3056 3057 3058 3059 3060 3061 3062 3063 3063 3063 3064 3065 3067 3066 3067 3069 3070 3069 3071 3073 3072 3072 3074 3075 3077 3079 3080 3083 3085 3086 3087 3089 3090 3091 3092 3093 3094 3095 3097 3097 3098 3098 3099 3099 3099 3098 3097 3097 3097 3097 3099 3099 3098 3099 3099 3099 3102 3104 3105 3105 3105 3105 3103 3103 3105 3106 3106 3108 3108 3105 3104 3107 3109 3111 3111 3112 3113 3113
3044 3045 3046 3047 3048 3049 3050 3051 3053 3054 3055 3056 3057 3058 3059 3059 3061 3061 3061 3061 3062 3064 3065 3064 3065 3067 3069 3070 3072 3071 3071 3072 3074 3075 3076 3078 3079 3082 3084 3085 3086 3088 3089 3091 3092 3092 3094 3094 3095 3095 3095 3096 3097 3098 3098 3098 3096 3096 3095 3095 3096 3097 3097 3098 3098 3097 3099 3102 3104 3105 3105 3105 3104 3103 3104 3105 3105 3105 3106 3104 3103 3105 3107 3109 3108 3109 3111 3111
3042 3044 3045 3046 3046 3048 3049 3050 3051 3052 3053 3054 3055 3056 3057 3057 3059 3059 3058 3059 3060 3061 3062 3063 3064 3066 3069 3072 3072 3069 3070 3072 3073 3075 3076 3077 3079 3080 3082 3084 3086 3087 3088 3090 3092 3092 3093 3093 3093 3093 3094 3095 3096 3097 3097 3096 3096 3096 3096 3095 3095 3095 3095 3097 3097 3097 3097 3100 3103 3104 3104 3104 3103 3103 3103 3103 3103 3103 3104 3101 3100 3102 3105 3106 3105 3107 3110 3110
3041 3042 3043 3044 3045 3046 3048 3049 3050 3051 3052 3053 3054 3055 3055 3056 3057 3057 3057 3057 3058 3058 3060 3061 3062 3064 3067 3070 3070 3069 3070 3072 3073 3075 3075 3076 3077 3079 3081 3082 3084 3086 3087 3089 3091 3091 3091 3091 3091 3092 3093 3094 3095 3096 3096 3095 3096 3096 3097 3096 3096 3095 3096 3097 3097 3097 3097 3098 3101 3103 3103 3102 3102 3102 3102 3102 3102 3101 3102 3101 3098 3099 3102 3104 3103 3105 3107 3109
3039 3041 3042 3043 3044 3045 3046 3047 3048 3049 3050 3051 3052 3053 3053 3055 3055 3055 3055 3055 3055 3056 3057 3058 3059 3061 3064 3067 3067 3067 3069 3071 3073 3074 3073 3074 3077 3078 3081 3082 3083 3085 3086 3088 3088 3089 3089 3088 3088 3090 3092 3093 3093 3094 3095 3094 3095 3095 3096 3096 3096 3096 3096 3096 3096 3097 3097 3097 3100 3102 3102 3101 3100 3100 3100 3101 3101 3100 3100 3101 3099 3097 3098 3100 3101 3102 3105 3107
3038 3039 3041 3041 3042 3044 3045 3046 3047 3048 3049 3050 3051 3051 3052 3053 3054 3054 3054 3053 3054 3053 3054 3056 3057 3059 3061 3064 3065 3064 3067 3070 3073 3073 3071 3073 3076 3077 3080 3081 3082 3084 3085 3086 3087 3086 3087 3085 3085 3088 3090 3091 3091 3092 3093 3094 3094 3094 3095 3096 3096 3096 3096 3095 3095 3096 3096 3097 3099 3101 3101 3098 3098 3098 3098 3099 3099 3099 3099 3100 3100 3099 3099 3100 3098 3100 3103 3105
3037 3038 3039 3040 3041 3042 3043 3045 3046 3047 3048 3048 3049 3050 3051 3052 3052 3053 3053 3053 3052 3051 3053 3055 3056 3057 3059 3062 3063 3063 3066 3068 3071 3072 3069 3071 3076 3077 3079 3080 3081 3082 3083 3084 3085 3085 3084 3083 3085 3087 3087 3088 3090 3090 3092 3093 3094 3093 3094 3095 3095 3095 3095 3095 3095 3095 3094 3094 3096 3099 3098 3095 3095 3096 3096 3096 3097 3097 3097 3097 3098 3099 3100 3101 3097 3097 3101 3103
3036 3037 3037 3038 3039 3041 3042 3043 3044 3046 3046 3047 3048 3048 3049 3050 3051 3052 3052 3052 3051 3050 3051 3053 3053 3055 3057 3059 3060 3062 3065 3065 3067 3071 3069 3069 3074 3076 3078 3079 3079 3080 3082 3083 3083 3083 3083 3083 3085 3086 3086 3087 3088 3090 3091 3092 3093 3092 3092 3093 3094 3095 3095 3095 3096 3095 3092 3092 3095 3097 3095 3092 3092 3092 3092 3093 3093 3093 3094 3095 3096 3097 3099 3100 3097 3094 3097 3100
3034 3035 3036 3037 3038 3039 3041 3042 3043 3044 3045 3045 3046 3047 3048 3049 3051 3051 3052 3052 3049 3048 3049 3051 3052 3053 3055 3057 3057 3060 3063 3062 3063 3067 3068 3068 3071 3074 3075 3077 3078 3078 3080 3082 3080 3080 3081 3081 3083 3085 3086 3087 3087 3088 3090 3091 3091 3090 3091 3092 3092 3093 3094 3093 3095 3095 3093 3094 3095 3094 3094 3091 3089 3090 3091 3090 3090 3090 3092 3092 3094 3096 3097 3099 3098 3093 3093 3096
3033 3034 3035 3036 3037 3038 3039 3041 3042 3042 3043 3044 3045 3046 3047 3049 3050 3051 3052 3051 3047 3046 3048 3049 3050 3052 3054 3055 3056 3057 3059 3060 3060 3063 3066 3067 3069 3073 3073 3074 3076 3077 3078 3079 3077 3078 3080 3080 3081 3083 3085 3085 3086 3087 3088 3089 3089 3089 3090 3091 3090 3091 3091 3091 3093 3094 3095 3095 3092 3092 3093 3090 3088 3089 3090 3089 3089 3089 3089 3091 3092 3093 3094 3097 3098 3095 3091 3093
3032 3033 3033 3034 3035 3036 3038 3039 3040 3041 3043 3044 3044 3046 3047 3049 3050 3050 3052 3050 3044 3044 3047 3048 3049 3051 3053 3054 3054 3057 3058 3060 3061 3061 3064 3066 3067 3070 3072 3072 3074 3076 3077 3077 3077 3077 3078 3078 3079 3082 3083 3084 3085 3086 3087 3087 3088 3088 3089 3089 3089 3089 3090 3092 3093 3093 3094 3092 3088 3089 3091 3088 3086 3088 3088 3088 3088 3087 3089 3091 3091 3089 3090 3092 3096 3095 3090 3090
3030 3031 3032 3033 3034 3035 3037 3038 3039 3040 3042 3043 3043 3045 3046 3048 3049 3050 3052 3048 3043 3043 3045 3047 3049 3050 3052 3053 3054 3056 3058 3059 3060 3060 3063 3065 3066 3068 3070 3072 3073 3074 3075 3076 3076 3076 3076 3077 3079 3080 3082 3083 3084 3084 3085 3086 3086 3087 3088 3088 3088 3089 3091 3093 3092 3093 3092 3087 3085 3087 3089 3088 3085 3085 3086 3087 3086 3086 3087 3088 3087 3087 3089 3091 3094 3093 3090 3090
3029 3030 3031 3032 3033 3034 3035 3036 3037 3038 3040 3041 3043 3044 3046 3048 3048 3049 3048 3044 3042 3043 3044 3045 3048 3049 3050 3052 3053 3054 3057 3058 3060 3060 3062 3064 3066 3067 3068 3070 3071 3072 3073 3073 3074 3075 3075 3076 3077 3078 3080 3081 3082 3083 3083 3084 3085 3086 3087 3088 3088 3089 3090 3091 3090 3091 3089 3084 3083 3085 3086 3086 3085 3084 3086 3085 3084 3085 3086 3087 3087 3088 3090 3091 3094 3094 3091 3090
3028 3029 3030 3031 3032 3033 3034 3035 3036 3037 3039 3040 3042 3044 3046 3047 3048 3046 3044 3042 3042 3042 3043 3045 3047 3048 3050 3051 3052 3053 3055 3057 3058 3059 3061 3062 3063 3064 3065 3067 3068 3070 3070 3070 3072 3072 3073 3074 3075 3077 3078 3079 3081 3081 3082 3083 3084 3085 3086 3087 3088 3087 3086 3087 3086 3086 3084 3082 3083 3084 3084 3084 3084 3084 3085 3083 3082 3083 3086 3087 3088 3089 3090 3091 3094 3094 3091 3089
3027 3028 3029 3030 3031 3032 3033 3034 3035 3037 3038 3040 3042 3043 3045 3047 3045 3043 3043 3042 3041 3041 3042 3044 3045 3047 3049 3050 3050 3051 3053 3055 3056 3058 3059 3060 3062 3063 3064 3065 3067 3068 3068 3069 3069 3069 3071 3073 3072 3074 3076 3077 3078 3079 3079 3079 3081 3083 3084 3085 3086 3085 3084 3085 3084 3083 3082 3081 3081 3083 3083 3082 3082 3083 3082 3082 3082 3083 3085 3087 3087 3088 3089 3090 3091 3090 3088 3086
3026 3027 3028 3028 3030 3031 3032 3033 3034 3036 3037 3039 3041 3043 3045 3045 3042 3041 3042 3042 3040 3041 3042 3043 3045 3047 3048 3048 3048 3049 3051 3053 3055 3056 3058 3059 3060 3061 3062 3063 3065 3067 3067 3068 3067 3067 3068 3069 3070 3071 3073 3074 3076 3076 3077 3077 3079 3081 3082 3083 3083 3082 3082 3082 3082 3082 3081 3080 3081 3082 3081 3080 3080 3081 3082 3081 3081 3082 3084 3085 3086 3087 3088 3089 3088 3088 3087 3085
3025 3026 3027 3028 3029 3030 3031 3032 3034 3035 3037 3038 3040 3042 3043 3042 3041 3041 3041 3040 3040 3042 3043 3044 3046 3047 3047 3047 3047 3047 3050 3051 3053 3055 3056 3056 3057 3058 3060 3061 3063 3065 3066 3066 3066 3067 3068 3067 3068 3070 3071 3072 3073 3074 3076 3076 3076 3078 3080 3080 3079 3079 3080 3080 3080 3081 3081 3081 3081 3081 3080 3078 3079 3080 3081 3081 3081 3082 3083 3084 3084 3085 3086 3088 3087 3087 3088 3086
3024 3025 3026 3027 3028 3029 3030 3032 3033 3035 3036 3038 3040 3041 3041 3040 3040 3040 3040 3040 3041 3041 3043 3044 3046 3046 3045 3046 3045 3046 3047 3049 3051 3053 3053 3054 3055 3056 3057 3059 3060 3062 3064 3064 3065 3066 3067 3067 3067 3068 3070 3071 3072 3073 3074 3074 3074 3075 3076 3076 3077 3078 3079 3078 3079 3080 3081 3082 3080 3079 3079 3079 3080 3081 3081 3081 3081 3082 3082 3083 3083 3083 3084 3086 3086 3086 3086 3086
3023 3024 3025 3026 3027 3029 3030 3031 3033 3034 3036 3038 3039 3039 3039 3040 3041 3040 3040 3040 3041 3042 3043 3043 3043 3043 3043 3043 3044 3045 3046 3048 3050 3052 3051 3052 3053 3053 3055 3057 3058 3060 3061 3063 3064 3065 3066 3066 3066 3067 3068 3069 3071 3072 3073 3073 3073 3073 3074 3074 3076 3077 3077 3077 3078 3078 3080 3080 3078 3076 3078 3079 3081 3082 3082 3081 3081 3081 3081 3082 3082 3082 3083 3084 3084 3084 3085 3085
3022 3023 3024 3026 3027 3028 3029 3031 3032 3034 3036 3037 3038 3038 3038 3039 3040 3040 3039 3040 3041 3043 3044 3043 3042 3042 3041 3041 3042 3044 3045 3047 3049 3050 3050 3050 3050 3051 3053 3055 3056 3058 3060 3062 3063 3064 3065 3065 3065 3065 3066 3067 3069 3070 3070 3071 3072 3073 3073 3074 3074 3074 3074 3075 3076 3077 3078 3078 3077 3075 3075 3078 3081 3082 3082 3081 3081 3081 3081 3083 3083 3082 3083 3084 3083 3083 3084 3083
3022 3023 3024 3025 3026 3028 3029 3030 3032 3034 3035 3037 3038 3038 3037 3038 3039 3039 3039 3040 3041 3043 3043 3043 3042 3041 3041 3041 3041 3042 3044 3045 3048 3050 3049 3049 3049 3049 3051 3053 3054 3056 3058 3060 3061 3063 3065 3065 3063 3063 3065 3066 3067 3067 3067 3068 3070 3071 3072 3072 3072 3071 3072 3073 3073 3075 3076 3075 3076 3075 3076 3080 3082 3083 3082 3081 3081 3082 3082 3084 3085 3084 3084 3084 3083 3083 3083 3083
3021 3022 3023 3025 3026 3027 3029 3030 3032 3033 3034 3036 3037 3038 3038 3039 3039 3039 3038 3040 3042 3043 3043 3043 3043 3042 3042 3042 3042 3042 3044 3045 3047 3049 3049 3049 3049 3049 3050 3052 3053 3055 3057 3059 3060 3061 3063 3064 3063 3063 3064 3064 3064 3064 3066 3066 3067 3069 3070 3070 3070 3071 3071 3071 3071 3073 3074 3074 3075 3076 3078 3082 3083 3083 3083 3081 3081 3082 3083 3084 3085 3085 3084 3084 3083 3083 3083 3083
3021 3022 3023 3024 3026 3027 3028 3030 3031 3033 3034 3036 3037 3038 3038 3038 3039 3039 3038 3039 3041 3042 3042 3042 3042 3043 3043 3043 3043 3043 3045 3046 3047 3048 3049 3049 3049 3049 3051 3053 3053 3054 3056 3057 3058 3059 3060 3062 3063 3063 3063 3062 3061 3063 3064 3065 3065 3066 3067 3068 3069 3069 3069 3070 3070 3072 3075 3076 3075 3075 3079 3083 3084 3084 3083 3081 3080 3082 3082 3083 3084 3084 3084 3084 3084 3084 3084 3083
3021 3022 3023 3024 3026 3027 3029 3030 3032 3033 3035 3036 3037 3037 3036 3037 3039 3039 3039 3039 3040 3041 3042 3042 3042 3043 3043 3044 3044 3044 3045 3046 3046 3048 3049 3049 3049 3049 3050 3052 3053 3055 3056 3056 3057 3058 3059 3060 3061 3061 3061 3060 3060 3062 3063 3064 3064 3065 3065 3066 3068 3068 3068 3068 3069 3072 3075 3075 3074 3074 3078 3081 3082 3082 3081 3079 3079 3081 3082 3082 3082 3083 3083 3082 3083 3082 3083 3082
3021 3021 3022 3024 3026 3027 3029 3030 3032 3033 3034 3035 3036 3036 3036 3037 3039 3039 3039 3040 3040 3041 3042 3043 3043 3044 3044 3044 3045 3045 3046 3046 3047 3048 3048 3048 3049 3049 3051 3052 3053 3054 3055 3056 3057 3057 3057 3059 3060 3060 3060 3060 3060 3061 3062 3062 3062 3063 3064 3065 3066 3066 3067 3067 3067 3070 3072 3073 3073 3074 3077 3079 3081 3082 3082 3080 3080 3081 3082 3082 3081 3081 3081 3081 3082 3082 3082 3082
3020 3021 3022 3024 3025 3027 3028 3030 3032 3033 3034 3034 3034 3036 3037 3037 3038 3039 3039 3040 3040 3041 3042 3043 3043 3044 3044 3045 3045 3046 3047 3047 3048 3048 3047 3047 3047 3049 3051 3052 3053 3053 3053 3054 3055 3055 3055 3058 3059 3059 3059 3059 3060 3061 3061 3061 3061 3062 3063 3064 3065 3065 3066 3065 3066 3068 3070 3072 3073 3075 3078 3081 3082 3082 3082 3082 3081 3081 3082 3082 3080 3080 3081 3081 3082 3082 3083 3083
3019 3021 3022 3023 3025 3027 3028 3029 3031 3032 3033 3033 3034 3035 3036 3036 3037 3037 3038 3039 3040 3041 3041 3042 3043 3043 3044 3044 3045 3045 3047 3047 3047 3048 3047 3046 3047 3048 3049 3051 3052 3052 3052 3054 3054 3054 3055 3057 3058 3058 3058 3059 3060 3061 3061 3060 3061 3063 3063 3064 3064 3065 3065 3064 3065 3066 3069 3071 3072 3074 3078 3081 3081 3080 3080 3081 3081 3081 3081 3081 3080 3080 3080 3081 3081 3082 3082 3082
3019 3020 3022 3023 3025 3027 3028 3029 3030 3031 3033 3033 3033 3034 3035 3036 3036 3036 3036 3038 3039 3040 3040 3041 3042 3042 3043 3043 3044 3045 3046 3046 3047 3047 3047 3045 3046 3047 3047 3048 3049 3049 3051 3053 3054 3054 3054 3055 3056 3058 3058 3059 3061 3062 3062 3062 3063 3063 3062 3061 3062 3062 3063 3064 3066 3067 3069 3073 3074 3073 3075 3078 3078 3078 3079 3079 3080 3081 3081 3080 3079 3079 3080 3080 3080 3081 3081 3081
3019 3020 3021 3023 3025 3026 3027 3028 3030 3031 3032 3032 3033 3033 3034 3035 3036 3036 3036 3037 3038 3039 3040 3040 3041 3042 3042 3043 3043 3044 3044 3045 3045 3046 3046 3045 3045 3047 3047 3047 3047 3049 3051 3052 3052 3053 3054 3055 3057 3058 3058 3060 3062 3063 3063 3062 3064 3063 3061 3061 3062 3062 3063 3065 3067 3068 3071 3075 3077 3075 3075 3076 3076 3077 3078 3078 3079 3080 3080 3079 3079 3079 3079 3079 3080 3080 3080 3080
3019 3019 3021 3023 3025 3026 3027 3028 3030 3030 3031 3031 3032 3032 3033 3034 3035 3036 3036 3036 3038 3038 3039 3039 3040 3041 3042 3042 3043 3043 3043 3044 3044 3045 3046 3045 3044 3045 3047 3047 3047 3049 3051 3051 3051 3052 3054 3056 3057 3057 3058 3059 3060 3062 3062 3062 3063 3063 3061 3061 3062 3063 3065 3066 3067 3069 3071 3075 3076 3076 3075 3075 3075 3076 3077 3077 3078 3079 3079 3078 3079 3079 3079 3078 3079 3079 3080 3080
3018 3019 3021 3023 3025 3026 3027 3027 3029 3029 3030 3030 3031 3031 3032 3034 3034 3035 3036 3036 3037 3038 3038 3039 3040 3040 3041 3042 3042 3043 3043 3043 3043 3044 3045 3044 3044 3045 3046 3047 3047 3048 3049 3049 3050 3052 3054 3056 3056 3056 3057 3058 3059 3061 3062 3062 3063 3063 3062 3062 3063 3064 3066 3067 3068 3069 3072 3074 3074 3075 3075 3075 3074 3075 3075 3076 3076 3077 3077 3077 3078 3078 3078 3078 3078 3078 3079 3080
3018 3019 3021 3024 3026 3026 3026 3027 3028 3029 3029 3029 3030 3031 3032 3033 3034 3034 3035 3036 3037 3038 3039 3039 3039 3040 3041 3042 3042 3042 3042 3041 3042 3043 3044 3044 3045 3046 3046 3048 3048 3048 3049 3048 3049 3051 3053 3054 3055 3056 3057 3058 3059 3061 3062 3062 3062 3062 3062 3062 3064 3066 3068 3068 3069 3071 3073 3074 3074 3074 3075 3074 3074 3074 3074 3074 3075 3075 3076 3076 3077 3077 3077 3077 3077 3078 3078 3079
3018 3019 3021 3024 3026 3026 3026 3027 3028 3029 3029 3029 3030 3031 3032 3033 3034 3034 3035 3036 3037 3037 3038 3039 3039 3040 3040 3041 3041 3041 3040 3040 3042 3043 3044 3045 3046 3046 3047 3048 3048 3049 3050 3049 3049 3051 3053 3053 3054 3056 3058 3058 3059 3061 3062 3062 3061 3061 3061 3063 3064 3067 3068 3069 3070 3071 3072 3073 3074 3075 3074 3074 3074 3073 3073 3073 3074 3074 3075 3075 3076 3076 3076 3077 3077 3078 3078 3078
3018 3019 3021 3024 3025 3026 3026 3028 3028 3028 3029 3029 3030 3031 3032 3033 3034 3034 3034 3036 3037 3037 3038 3038 3039 3039 3039 3039 3040 3040 3039 3039 3041 3043 3044 3045 3046 3046 3048 3048 3048 3049 3050 3050 3050 3051 3052 3053 3054 3055 3057 3058 3059 3059 3060 3061 3061 3061 3063 3064 3065 3067 3069 3069 3070 3071 3072 3072 3072 3073 3073 3072 3072 3072 3072 3073 3074 3074 3074 3075 3075 3076 3076 3077 3078 3078 3078 3078